Location: Chełm
(51.1339°N, 23.4725°E)
Time: 07:30:35
(UTC+01:00)

ISS - Pass Details

Date: 26 January 2019
Orbit: 403 x 411 km, 51.6° (Epoch: 17 February)

Event Time Altitude Azimuth Distance (km) Brightness Sun altitude
Rises 19:14:18 0° 261° (W) 2,336 1.1 -29.3°
Reaches altitude 10° 19:16:23 10° 262° (W) 1,478 -0.1 -29.7°
Enters shadow 19:16:57 14° 262° (W) 1,242 -0.6 -29.7°
